Time,TemperatureF,DewpointF,PressureIn,WindDirection,WindDirectionDegrees,WindSpeedMPH,WindSpeedGustMPH,Humidity,HourlyPrecipIn,Conditions,Clouds,dailyrainin,SoftwareType,DateUTC
2013-05-28 00:11:00,65.7,63.0,29.90,SE,142,0.0,2.0,92,0.00,,,0.00,weatherlink.com 1.10,2013-05-28 05:11:00,
2013-05-28 00:26:00,66.2,64.0,29.91,SE,142,0.0,2.0,91,0.00,,,0.00,weatherlink.com 1.10,2013-05-28 05:26:00,
2013-05-28 00:41:00,65.9,63.0,29.91,SE,142,0.0,1.0,91,0.00,,,0.00,weatherlink.com 1.10,2013-05-28 05:41:00,
2013-05-28 00:56:00,65.6,63.0,29.92,SE,142,0.0,0.0,91,0.00,,,0.00,weatherlink.com 1.10,2013-05-28 05:56:00,
2013-05-28 01:11:00,64.8,62.0,29.91,SE,142,0.0,1.0,91,0.00,,,0.00,weatherlink.com 1.10,2013-05-28 06:11:00,
2013-05-28 01:26:00,64.2,62.0,29.91,SE,142,0.0,1.0,92,0.00,,,0.00,weatherlink.com 1.10,2013-05-28 06:26:00,
2013-05-28 01:41:00,64.3,62.0,29.91,SE,142,0.0,1.0,93,0.00,,,0.00,weatherlink.com 1.10,2013-05-28 06:41:00,
2013-05-28 01:56:00,63.9,62.0,29.91,SE,142,0.0,0.0,94,0.00,,,0.00,weatherlink.com 1.10,2013-05-28 06:56:00,
2013-05-28 02:11:00,63.5,62.0,29.90,SE,142,1.0,2.0,94,0.00,,,0.00,weatherlink.com 1.10,2013-05-28 07:11:00,
2013-05-28 02:26:00,64.7,63.0,29.89,SE,142,2.0,5.0,93,0.00,,,0.00,weatherlink.com 1.10,2013-05-28 07:26:00,
2013-05-28 02:41:00,65.4,63.0,29.89,SE,142,2.0,4.0,90,0.00,,,0.00,weatherlink.com 1.10,2013-05-28 07:41:00,
2013-05-28 02:56:00,66.2,63.0,29.89,SE,142,4.0,5.0,88,0.00,,,0.00,weatherlink.com 1.10,2013-05-28 07:56:00,
2013-05-28 03:11:00,66.5,63.0,29.88,SE,142,3.0,5.0,87,0.00,,,0.00,weatherlink.com 1.10,2013-05-28 08:11:00,
2013-05-28 03:26:00,67.2,63.0,29.87,SE,142,5.0,7.0,86,0.00,,,0.00,weatherlink.com 1.10,2013-05-28 08:26:00,
2013-05-28 03:41:00,67.9,63.0,29.87,SSE,162,6.0,8.0,85,0.00,,,0.00,weatherlink.com 1.10,2013-05-28 08:41:00,
2013-05-28 03:56:00,68.0,63.0,29.87,SSE,161,6.0,8.0,85,0.00,,,0.00,weatherlink.com 1.10,2013-05-28 08:56:00,
2013-05-28 04:11:00,68.0,63.0,29.88,SSE,161,5.0,7.0,85,0.00,,,0.00,weatherlink.com 1.10,2013-05-28 09:11:00,
2013-05-28 04:26:00,68.2,63.0,29.88,SSE,159,6.0,8.0,84,0.00,,,0.00,weatherlink.com 1.10,2013-05-28 09:26:00,
2013-05-28 04:41:00,68.2,63.0,29.88,SSE,159,6.0,9.0,84,0.00,,,0.00,weatherlink.com 1.10,2013-05-28 09:41:00,
2013-05-28 04:56:00,68.5,64.0,29.88,SSE,163,6.0,10.0,84,0.00,,,0.00,weatherlink.com 1.10,2013-05-28 09:56:00,
2013-05-28 05:11:00,68.7,64.0,29.88,South,178,6.0,12.0,85,0.00,,,0.00,weatherlink.com 1.10,2013-05-28 10:11:00,
2013-05-28 05:26:00,69.2,64.0,29.90,South,179,7.0,10.0,84,0.00,,,0.00,weatherlink.com 1.10,2013-05-28 10:26:00,
2013-05-28 05:41:00,69.3,64.0,29.91,South,173,5.0,9.0,84,0.00,,,0.00,weatherlink.com 1.10,2013-05-28 10:41:00,
2013-05-28 05:56:00,69.6,65.0,29.92,South,169,6.0,8.0,84,0.00,,,0.00,weatherlink.com 1.10,2013-05-28 10:56:00,
2013-05-28 06:11:00,69.8,65.0,29.92,South,172,5.0,9.0,84,0.00,,,0.00,weatherlink.com 1.10,2013-05-28 11:11:00,
2013-05-28 06:26:00,69.9,65.0,29.92,SSE,161,10.0,12.0,84,0.00,,,0.00,weatherlink.com 1.10,2013-05-28 11:26:00,
2013-05-28 06:41:00,70.2,65.0,29.91,SSE,167,6.0,12.0,84,0.00,,,0.00,weatherlink.com 1.10,2013-05-28 11:41:00,
2013-05-28 06:56:00,70.7,66.0,29.92,South,178,11.0,14.0,84,0.00,,,0.00,weatherlink.com 1.10,2013-05-28 11:56:00,
2013-05-28 07:11:00,71.3,66.0,29.92,South,173,8.0,16.0,84,0.00,,,0.00,weatherlink.com 1.10,2013-05-28 12:11:00,
2013-05-28 07:26:00,71.9,67.0,29.93,SSE,157,11.0,16.0,83,0.00,,,0.00,weatherlink.com 1.10,2013-05-28 12:26:00,
2013-05-28 07:41:00,72.5,67.0,29.94,SSW,204,5.0,13.0,83,0.00,,,0.00,weatherlink.com 1.10,2013-05-28 12:41:00,
2013-05-28 07:56:00,73.0,68.0,29.95,South,177,3.0,15.0,83,0.00,,,0.00,weatherlink.com 1.10,2013-05-28 12:56:00,
2013-05-28 08:11:00,73.2,68.0,29.94,SSW,194,8.0,15.0,83,0.00,,,0.00,weatherlink.com 1.10,2013-05-28 13:11:00,
2013-05-28 08:27:00,73.7,68.0,29.92,SSE,164,8.0,18.0,83,0.00,,,0.00,weatherlink.com 1.10,2013-05-28 13:27:00,
2013-05-28 08:42:00,74.6,69.0,29.92,SSE,167,9.0,14.0,83,0.00,,,0.00,weatherlink.com 1.10,2013-05-28 13:42:00,
2013-05-28 08:57:00,75.1,69.0,29.92,SSW,196,7.0,21.0,81,0.00,,,0.00,weatherlink.com 1.10,2013-05-28 13:57:00,
2013-05-28 09:12:00,75.9,70.0,29.91,South,170,11.0,19.0,81,0.00,,,0.00,weatherlink.com 1.10,2013-05-28 14:12:00,
2013-05-28 09:27:00,76.7,70.0,29.91,South,176,14.0,17.0,79,0.00,,,0.00,weatherlink.com 1.10,2013-05-28 14:27:00,
2013-05-28 09:42:00,77.7,70.0,29.91,South,179,13.0,25.0,76,0.00,,,0.00,weatherlink.com 1.10,2013-05-28 14:42:00,
2013-05-28 09:57:00,78.9,70.0,29.91,SSW,195,7.0,19.0,73,0.00,,,0.00,weatherlink.com 1.10,2013-05-28 14:57:00,
2013-05-28 10:12:00,79.6,69.0,29.91,South,169,19.0,23.0,71,0.00,,,0.00,weatherlink.com 1.10,2013-05-28 15:12:00,
2013-05-28 10:27:00,80.6,70.0,29.90,South,180,13.0,22.0,69,0.00,,,0.00,weatherlink.com 1.10,2013-05-28 15:27:00,
2013-05-28 10:42:00,81.3,70.0,29.90,SSW,195,16.0,23.0,69,0.00,,,0.00,weatherlink.com 1.10,2013-05-28 15:42:00,
2013-05-28 10:57:00,82.4,69.0,29.91,SW,220,6.0,20.0,65,0.00,,,0.00,weatherlink.com 1.10,2013-05-28 15:57:00,
2013-05-28 11:12:00,82.1,68.0,29.92,South,169,11.0,19.0,63,0.00,,,0.00,weatherlink.com 1.10,2013-05-28 16:12:00,
2013-05-28 11:27:00,82.3,67.0,29.93,SSW,200,12.0,19.0,61,0.00,,,0.00,weatherlink.com 1.10,2013-05-28 16:27:00,
2013-05-28 11:42:00,84.1,68.0,29.93,SSW,192,14.0,20.0,59,0.00,,,0.00,weatherlink.com 1.10,2013-05-28 16:42:00,
2013-05-28 11:57:00,83.3,66.0,29.95,South,190,15.0,26.0,56,0.00,,,0.00,weatherlink.com 1.10,2013-05-28 16:57:00,
2013-05-28 12:12:00,83.4,67.0,29.95,SSW,207,9.0,20.0,57,0.00,,,0.00,weatherlink.com 1.10,2013-05-28 17:12:00,
2013-05-28 12:27:00,82.9,67.0,29.94,SSW,192,11.0,19.0,59,0.00,,,0.00,weatherlink.com 1.10,2013-05-28 17:27:00,
2013-05-28 12:42:00,83.0,68.0,29.94,South,180,7.0,12.0,61,0.00,,,0.00,weatherlink.com 1.10,2013-05-28 17:42:00,
2013-05-28 12:57:00,82.1,68.0,29.93,South,185,8.0,13.0,63,0.00,,,0.00,weatherlink.com 1.10,2013-05-28 17:57:00,
2013-05-28 13:12:00,82.5,68.0,29.93,South,186,9.0,14.0,62,0.00,,,0.00,weatherlink.com 1.10,2013-05-28 18:12:00,
2013-05-28 13:27:00,83.2,68.0,29.90,South,172,9.0,16.0,60,0.00,,,0.00,weatherlink.com 1.10,2013-05-28 18:27:00,
2013-05-28 13:42:00,83.4,68.0,29.90,South,184,12.0,22.0,60,0.00,,,0.00,weatherlink.com 1.10,2013-05-28 18:42:00,
2013-05-28 13:57:00,85.2,68.0,29.89,South,190,12.0,21.0,56,0.00,,,0.00,weatherlink.com 1.10,2013-05-28 18:57:00,
2013-05-28 14:12:00,86.0,67.0,29.90,SSW,206,7.0,23.0,54,0.00,,,0.00,weatherlink.com 1.10,2013-05-28 19:12:00,
2013-05-28 14:27:00,86.4,66.0,29.90,South,179,22.0,24.0,51,0.00,,,0.00,weatherlink.com 1.10,2013-05-28 19:27:00,
2013-05-28 14:42:00,86.1,67.0,29.89,SSE,153,9.0,22.0,53,0.00,,,0.00,weatherlink.com 1.10,2013-05-28 19:42:00,
2013-05-28 14:57:00,86.7,66.0,29.89,South,171,16.0,25.0,50,0.00,,,0.00,weatherlink.com 1.10,2013-05-28 19:57:00,
2013-05-28 15:12:00,87.3,66.0,29.89,SSW,202,10.0,20.0,50,0.00,,,0.00,weatherlink.com 1.10,2013-05-28 20:12:00,
2013-05-28 15:27:00,87.3,65.0,29.89,South,181,11.0,24.0,48,0.00,,,0.00,weatherlink.com 1.10,2013-05-28 20:27:00,
2013-05-28 15:42:00,85.9,66.0,29.88,South,169,18.0,20.0,52,0.00,,,0.00,weatherlink.com 1.10,2013-05-28 20:42:00,
2013-05-28 15:57:00,85.3,67.0,29.87,South,182,9.0,20.0,54,0.00,,,0.00,weatherlink.com 1.10,2013-05-28 20:57:00,
2013-05-28 16:12:00,86.8,68.0,29.86,SSW,206,8.0,16.0,53,0.00,,,0.00,weatherlink.com 1.10,2013-05-28 21:12:00,
2013-05-28 16:27:00,86.5,67.0,29.86,South,179,15.0,25.0,53,0.00,,,0.00,weatherlink.com 1.10,2013-05-28 21:27:00,
2013-05-28 16:42:00,85.3,68.0,29.86,SSE,159,9.0,19.0,57,0.00,,,0.00,weatherlink.com 1.10,2013-05-28 21:42:00,
2013-05-28 16:57:00,85.8,68.0,29.86,SSE,164,12.0,19.0,55,0.00,,,0.00,weatherlink.com 1.10,2013-05-28 21:57:00,
2013-05-28 17:12:00,85.0,68.0,29.85,SSW,192,13.0,21.0,57,0.00,,,0.00,weatherlink.com 1.10,2013-05-28 22:12:00,
2013-05-28 17:27:00,85.3,69.0,29.85,South,179,13.0,22.0,58,0.00,,,0.00,weatherlink.com 1.10,2013-05-28 22:27:00,
2013-05-28 17:43:00,84.2,68.0,29.84,SSE,165,11.0,20.0,59,0.00,,,0.00,weatherlink.com 1.10,2013-05-28 22:43:00,
2013-05-28 17:58:00,83.9,68.0,29.84,South,178,13.0,17.0,59,0.00,,,0.00,weatherlink.com 1.10,2013-05-28 22:58:00,
2013-05-28 18:13:00,83.7,68.0,29.84,South,185,15.0,20.0,59,0.00,,,0.00,weatherlink.com 1.10,2013-05-28 23:13:00,
2013-05-28 18:28:00,83.6,68.0,29.84,South,186,15.0,21.0,59,0.00,,,0.00,weatherlink.com 1.10,2013-05-28 23:28:00,
2013-05-28 18:43:00,83.6,67.0,29.84,South,191,11.0,21.0,58,0.00,,,0.00,weatherlink.com 1.10,2013-05-28 23:43:00,
2013-05-28 18:58:00,83.7,67.0,29.85,SSW,202,15.0,19.0,58,0.00,,,0.00,weatherlink.com 1.10,2013-05-28 23:58:00,
2013-05-28 19:13:00,83.2,67.0,29.85,South,179,7.0,15.0,59,0.00,,,0.00,weatherlink.com 1.10,2013-05-29 00:13:00,
2013-05-28 19:28:00,83.0,67.0,29.86,South,169,5.0,13.0,59,0.00,,,0.00,weatherlink.com 1.10,2013-05-29 00:28:00,
2013-05-28 19:43:00,82.4,67.0,29.86,South,182,3.0,13.0,60,0.00,,,0.00,weatherlink.com 1.10,2013-05-29 00:43:00,
2013-05-28 19:58:00,81.8,67.0,29.86,South,175,5.0,12.0,62,0.00,,,0.00,weatherlink.com 1.10,2013-05-29 00:58:00,
2013-05-28 20:13:00,81.0,68.0,29.86,South,169,7.0,12.0,65,0.00,,,0.00,weatherlink.com 1.10,2013-05-29 01:13:00,
2013-05-28 20:28:00,81.0,68.0,29.86,South,186,6.0,12.0,64,0.00,,,0.00,weatherlink.com 1.10,2013-05-29 01:28:00,
2013-05-28 20:43:00,80.2,68.0,29.86,South,179,8.0,9.0,66,0.00,,,0.00,weatherlink.com 1.10,2013-05-29 01:43:00,
2013-05-28 20:58:00,80.4,68.0,29.86,SSW,195,7.0,16.0,65,0.00,,,0.00,weatherlink.com 1.10,2013-05-29 01:58:00,
2013-05-28 21:13:00,79.7,67.0,29.86,South,186,11.0,16.0,66,0.00,,,0.00,weatherlink.com 1.10,2013-05-29 02:13:00,
2013-05-28 21:28:00,79.6,67.0,29.86,SSE,163,4.0,13.0,66,0.00,,,0.00,weatherlink.com 1.10,2013-05-29 02:28:00,
2013-05-28 21:43:00,79.5,66.0,29.86,SSW,198,9.0,16.0,64,0.00,,,0.00,weatherlink.com 1.10,2013-05-29 02:43:00,
2013-05-28 21:58:00,79.3,66.0,29.87,SSE,168,5.0,11.0,63,0.00,,,0.00,weatherlink.com 1.10,2013-05-29 02:58:00,
2013-05-28 22:13:00,78.9,65.0,29.87,South,169,7.0,12.0,63,0.00,,,0.00,weatherlink.com 1.10,2013-05-29 03:13:00,
2013-05-28 22:28:00,78.3,65.0,29.89,South,191,6.0,11.0,64,0.00,,,0.00,weatherlink.com 1.10,2013-05-29 03:28:00,
2013-05-28 22:43:00,77.5,65.0,29.90,South,175,5.0,8.0,65,0.00,,,0.00,weatherlink.com 1.10,2013-05-29 03:43:00,
2013-05-28 22:58:00,77.4,65.0,29.90,SSE,157,9.0,9.0,65,0.00,,,0.00,weatherlink.com 1.10,2013-05-29 03:58:00,
2013-05-28 23:13:00,77.1,64.0,29.91,SSE,167,5.0,8.0,65,0.00,,,0.00,weatherlink.com 1.10,2013-05-29 04:13:00,
2013-05-28 23:28:00,76.9,64.0,29.91,South,172,10.0,12.0,64,0.00,,,0.00,weatherlink.com 1.10,2013-05-29 04:28:00,
2013-05-28 23:43:00,77.0,64.0,29.91,South,173,7.0,13.0,64,0.00,,,0.00,weatherlink.com 1.10,2013-05-29 04:43:00,
2013-05-28 23:58:00,76.7,64.0,29.91,South,190,10.0,13.0,64,0.00,,,0.00,weatherlink.com 1.10,2013-05-29 04:58:00,